Regional Weather Roundup
Issued by NWS Kansas City/Pleasant Hill, MO

Home | Current Version | Previous Version | Graphics & Text | Print | Product List | Glossary Off
Versions: 1 2 3 4 5 6 7 8 9 10 11 12 13 14 15 16 17 18 19 20 21 22 23 24 25 26 27 28 29 30 31 32 33 34 35 36 37 38 39 40 41 42 43 44 45 46 47 48 49 50

000
ASUS43 KEAX 182110
RWREAX

WEATHER ROUNDUP FOR EASTERN KANSAS AND NORTHWEST MISSOURI
NATIONAL WEATHER SERVICE KANSAS CITY/PLEASANT HILL MO
300 PM CST THU JAN 18 2018

KSZ040-057-103>105-MOZ028-029-037-043-182200-
...KANSAS CITY METROPOLITAN AREA...

CITY           SKY/WX    TMP DP  RH WIND       PRES   REMARKS
K.C. INTL      PTSUNNY   38  21  50 SW13      30.09F WCI  30
K.C. DOWNTOWN  FAIR      43  21  41 SW14      30.11F
LEES SUMMIT    FAIR      41  20  43 SW16      30.12F WCI  33
OLATHE - IXD   FAIR      38  21  50 S18       30.12F WCI  28
OLATHE - OJC   FAIR      38  20  48 S14       30.12F WCI  30
LAWRENCE       FAIR      40  23  50 SE9       30.12F WCI  34

$$

MOZ001>008-011>017-020>025-030>033-038>040-044>046-053-054-182200-
...NORTHERN AND CENTRAL MISSOURI...

CITY           SKY/WX    TMP DP  RH WIND       PRES   REMARKS
ST. JOSEPH     FAIR      38  23  55 S12       30.08F WCI  30
MOSBY          FAIR      41  19  42 SW12      30.11F WCI  34
WARRENSBURG    FAIR      37  18  44 S17G23    30.15F WCI  28
WHITEMAN AFB   MOSUNNY   38  19  46 SW20      30.10F WCI  28
CLINTON        FAIR      39  19  45 SW10      30.19F WCI  32
SEDALIA        FAIR      41  20  43 SW21G28   30.16F WCI  32
WARSAW         NOT AVBL
CHILLICOTHE      N/A     38  21  50 S13G20    30.09F WCI  30
KIRKSVILLE     FAIR      36  21  54 SW15G22   30.07F WCI  27

$$

MOZ041-047>049-056>058-063>065-088>090-097-182200-
...EASTERN AND SOUTHERN MISSOURI...

CITY           SKY/WX    TMP DP  RH WIND       PRES   REMARKS
ST. LOUIS INTL FAIR      46  13  26 SW15      30.20F
SPIRIT OF STL  FAIR      47  15  27 SW13G20   30.19F
COLUMBIA       FAIR      42  17  36 SW16      30.17F WCI  34
JEFFERSON CITY FAIR      44  14  29 SW15G22   30.20F
ROLLA          FAIR      43  16  33 SW15      30.21F
OSAGE BEACH    FAIR      43  16  33 SW13      30.22F
SPRINGFIELD    FAIR      41  22  46 SW14      30.22F WCI  33
BRANSON        SUNNY     45  10  24 SW7       30.27F
JOPLIN         FAIR      41  20  43 S18       30.21F WCI  32
WEST PLAINS    FAIR      38  14  37 SW8       30.28F WCI  32

$$

IAZ060-094-KSZ022-034>040-054-083-096-NEZ052-066-093-182200-
...KANSAS...SOUTHEAST NEBRASKA AND IOWA...

CITY           SKY/WX    TMP DP  RH WIND       PRES   REMARKS
TOPEKA         FAIR      42  24  49 S10       30.09F
MANHATTAN      FAIR      46  24  42 SW10      30.05F
EMPORIA        FAIR      46  21  37 SW21      30.09F
WICHITA        FAIR      53  20  27 S17G31    30.09F
OMAHA          PTSUNNY   35  21  56 S16       29.95F WCI  25
LINCOLN        FAIR      42  23  46 S17       29.95F WCI  34
FALLS CITY     FAIR      39  21  48 S9        30.03F WCI  33
LAMONI         FAIR      36  20  52 SW16      30.01F WCI  26
DES MOINES     PTSUNNY   37  20  50 SW16      29.96F WCI  28

$$




USA.gov is the U.S. government's official web portal to all federal, state and local government web resources and services.